Location: Antioch Church
(34.9543°N, 88.5145°W)
Time: 20:54:28
(UTC+00:00)

Okean 1-7 - Pass Details

Date: 11 December 2019
Orbit: 590 x 619 km, 82.5° (Epoch: 28 January)

Event Time Altitude Azimuth Distance (km) Brightness Sun altitude
Exits shadow 11:52:30 11° 326° (NW) 1,904 5.1 -11.9°
Maximum altitude 11:55:56 27° 270° (W) 1,198 4.0 -11.2°
Drops below altitude 10° 11:59:36 10° 213° (SSW) 1,967 5.5 -10.5°
Sets 12:02:03 0° 201° (SSW) 2,862 6.5 -10.1°
